Date String (YYYY-MM-DD hh:mm:ss) UTC,Instrument flags,Ambient pressure (hPa),Sample flow (lpm),Bypass flow (lpm),Sample temperature (°C),Ambient temperature (°C),ASC tube jacket temperature (°C),LED temperature (°C),Box temperature (°C),Sample RH (%),Span deviation,Mass concentration (μg/m³),Mass concentration (μg/m³),Mass concentration (μg/m³)
DateTimeUTC,F1_M11,P_M11,Q1_M11,Q2_M11,T1_M11,T2_M11,T3_M11,T4_M11,T5_M11,U1_M11,ZSPAN_M11,X0_M11,X2_M11,X1_M11
2022-11-01 11:00:00,,0824.1,5.00,0.00,26.6,24.8,00.0,35.6,28.3,10.0,0000.0,0007.28,0002.95,0002.49
2022-11-01 11:01:00,,0824.1,5.00,0.00,26.6,24.8,00.0,35.6,28.2,10.0,0000.0,0007.18,0002.93,0002.48
2022-11-01 11:02:00,,0824.1,5.00,0.00,26.6,24.8,00.0,35.5,28.2,10.0,0000.0,0007.61,0002.89,0002.45
2022-11-01 11:03:00,,0824.1,4.99,0.00,26.6,24.8,00.0,35.5,28.2,10.0,0000.0,0008.20,0002.86,0002.41
2022-11-01 11:04:00,,0824.1,5.01,0.00,26.5,24.8,00.0,35.5,28.3,10.0,0000.0,0007.34,0002.81,0002.38
2022-11-01 11:05:00,,0824.1,5.00,0.00,26.5,24.7,00.0,35.5,28.3,10.0,0000.0,0007.27,0002.78,0002.36
2022-11-01 11:06:00,,0824.1,4.99,0.00,26.5,24.8,00.0,35.5,28.3,10.0,0000.0,0006.69,0002.78,0002.35
2022-11-01 11:07:00,,0824.1,4.99,0.00,26.5,24.8,00.0,35.5,28.3,10.0,0000.0,0006.48,0002.79,0002.35
2022-11-01 11:08:00,,0824.1,5.01,0.00,26.5,24.7,00.0,35.5,28.2,10.0,0000.0,0006.26,0002.74,0002.34
2022-11-01 11:09:00,,0824.1,5.00,0.00,26.5,24.7,00.0,35.5,28.2,10.0,0000.0,0005.96,0002.70,0002.33
2022-11-01 11:10:00,,0824.1,5.00,0.00,26.5,24.7,00.0,35.5,28.2,10.0,0000.0,0005.90,0002.68,0002.33
2022-11-01 11:11:00,,0824.2,5.01,0.00,26.5,24.7,00.0,35.4,28.2,10.0,0000.0,0005.87,0002.67,0002.34
2022-11-01 11:12:00,,0824.1,5.00,0.00,26.5,24.7,00.0,35.4,28.3,10.0,0000.0,0005.90,0002.65,0002.33
2022-11-01 11:13:00,,0824.1,5.00,0.00,26.5,24.7,00.0,35.4,28.2,10.0,0000.0,0005.32,0002.65,0002.32
2022-11-01 11:14:00,,0824.2,5.00,0.00,26.5,24.7,00.0,35.4,28.2,10.0,0000.0,0004.14,0002.64,0002.31
2022-11-01 11:15:00,,0824.1,4.99,0.00,26.5,24.7,00.0,35.4,28.2,09.9,0000.0,0004.11,0002.65,0002.29
2022-11-01 11:16:00,,0824.1,4.99,0.00,26.5,24.7,00.0,35.4,28.2,09.9,0000.0,0003.93,0002.64,0002.28
2022-11-01 11:17:00,,0824.2,4.99,0.00,26.5,24.7,00.0,35.4,28.2,10.0,0000.0,0003.85,0002.67,0002.28
2022-11-01 11:18:00,,0824.2,5.00,0.00,26.4,24.7,00.0,35.4,28.2,10.0,0000.0,0003.86,0002.65,0002.26
2022-11-01 11:19:00,,0824.2,5.00,0.00,26.4,24.6,00.0,35.4,28.1,10.1,0000.0,0004.02,0002.70,0002.25
2022-11-01 11:20:00,,0824.3,5.00,0.00,26.4,24.6,00.0,35.4,28.1,10.1,0000.0,0004.16,0002.72,0002.24
2022-11-01 11:21:00,,0824.2,5.01,0.00,26.4,24.6,00.0,35.4,28.2,10.1,0000.0,0004.16,0002.72,0002.22
2022-11-01 11:22:00,,0824.2,5.00,0.00,26.4,24.6,00.0,35.4,28.1,10.1,0000.0,0004.16,0002.71,0002.20
2022-11-01 11:23:00,,0824.2,4.99,0.00,26.4,24.6,00.0,35.4,28.1,10.1,0000.0,0004.06,0002.69,0002.18
2022-11-01 11:24:00,,0824.2,4.99,0.00,26.4,24.6,00.0,35.3,28.1,10.1,0000.0,0004.06,0002.69,0002.17
2022-11-01 11:25:00,,0824.2,5.00,0.00,26.4,24.6,00.0,35.3,28.2,10.2,0000.0,0003.90,0002.64,0002.14
2022-11-01 11:26:00,,0824.2,5.01,0.00,26.4,24.6,00.0,35.3,28.1,10.2,0000.0,0003.80,0002.58,0002.11
2022-11-01 11:27:00,,0824.2,5.01,0.00,26.4,24.6,00.0,35.3,28.1,10.2,0000.0,0003.75,0002.54,0002.09
2022-11-01 11:28:00,,0824.2,5.01,0.00,26.4,24.6,00.0,35.3,28.1,10.1,0000.0,0003.43,0002.48,0002.06
2022-11-01 11:29:00,,0824.3,4.99,0.00,26.3,24.6,00.0,35.3,28.0,10.1,0000.0,0003.33,0002.48,0002.05
2022-11-01 11:30:00,,0824.2,5.00,0.00,26.3,24.6,00.0,35.3,28.0,10.1,0000.0,0003.15,0002.40,0002.03
2022-11-01 11:31:00,,0824.3,5.00,0.00,26.3,24.5,00.0,35.3,28.1,10.1,0000.0,0003.06,0002.39,0002.04
2022-11-01 11:32:00,,0824.2,5.00,0.00,26.3,24.6,00.0,35.3,28.1,10.1,0000.0,0003.32,0002.37,0002.04
2022-11-01 11:33:00,,0824.2,5.01,0.00,26.3,24.6,00.0,35.3,28.0,10.1,0000.0,0004.14,0002.38,0002.05
2022-11-01 11:34:00,,0824.3,5.01,0.00,26.3,24.5,00.0,35.3,28.0,10.1,0000.0,0004.32,0002.42,0002.06
2022-11-01 11:35:00,,0824.2,4.99,0.00,26.3,24.6,00.0,35.3,28.1,10.1,0000.0,0004.95,0002.42,0002.08
2022-11-01 11:36:00,,0824.3,4.99,0.00,26.3,24.6,00.0,35.2,28.1,10.0,0000.0,0005.55,0002.47,0002.11
2022-11-01 11:37:00,,0824.3,5.01,0.00,26.3,24.5,00.0,35.2,28.0,09.9,0000.0,0006.03,0002.48,0002.14
2022-11-01 11:38:00,,0824.2,5.01,0.00,26.3,24.5,00.0,35.2,28.0,09.8,0000.0,0006.23,0002.56,0002.18
2022-11-01 11:39:00,,0824.3,5.01,0.00,26.3,24.5,00.0,35.2,28.0,09.6,0000.0,0006.37,0002.67,0002.26
2022-11-01 11:40:00,,0824.3,5.00,0.00,26.3,24.5,00.0,35.2,27.9,09.7,0000.0,0006.54,0002.77,0002.35
2022-11-01 11:41:00,,0824.3,5.00,0.00,26.2,24.5,00.0,35.2,28.0,10.0,0000.0,0006.77,0002.88,0002.41
2022-11-01 11:42:00,,0824.2,4.99,0.00,26.2,24.5,00.0,35.2,28.0,09.8,0000.0,0006.84,0002.94,0002.45
2022-11-01 11:43:00,,0824.2,5.00,0.00,26.2,24.5,00.0,35.2,27.9,09.9,0000.0,0007.01,0003.03,0002.49
2022-11-01 11:44:00,,0824.2,4.99,0.00,26.2,24.5,00.0,35.2,27.9,10.1,0000.0,0006.21,0003.06,0002.51
2022-11-01 11:45:00,,0824.3,5.00,0.00,26.2,24.4,00.0,35.2,27.9,10.1,0000.0,0006.15,0003.05,0002.52
2022-11-01 11:46:00,,0824.3,5.01,0.00,26.2,24.4,00.0,35.1,27.9,10.1,0000.0,0005.77,0003.07,0002.53
2022-11-01 11:47:00,,0824.3,5.01,0.00,26.2,24.4,00.0,35.1,27.9,10.1,0000.0,0005.40,0003.08,0002.53
2022-11-01 11:48:00,,0824.2,5.01,0.00,26.2,24.4,00.0,35.1,27.8,10.2,0000.0,0004.62,0003.09,0002.54
2022-11-01 11:49:00,,0824.3,5.00,0.00,26.2,24.4,00.0,35.1,27.8,10.2,0000.0,0004.60,0003.09,0002.52
2022-11-01 11:50:00,,0824.4,5.00,0.00,26.1,24.4,00.0,35.1,27.8,10.3,0000.0,0004.47,0002.97,0002.44
2022-11-01 11:51:00,,0824.2,4.99,0.00,26.1,24.4,00.0,35.1,27.9,10.3,0000.0,0004.39,0002.86,0002.35
2022-11-01 11:52:00,,0824.3,5.00,0.00,26.1,24.4,00.0,35.1,27.9,10.2,0000.0,0004.39,0002.78,0002.31
2022-11-01 11:53:00,,0824.2,5.00,0.00,26.1,24.4,00.0,35.1,28.0,10.3,0000.0,0004.52,0002.75,0002.27
2022-11-01 11:54:00,,0824.2,5.01,0.00,26.1,24.4,00.0,35.1,27.9,10.3,0000.0,0004.36,0002.66,0002.23
2022-11-01 11:55:00,,0824.3,5.01,0.00,26.1,24.4,00.0,35.1,27.9,10.3,0000.0,0004.20,0002.65,0002.21
2022-11-01 11:56:00,,0824.2,5.00,0.00,26.1,24.4,00.0,35.1,27.9,10.3,0000.0,0004.08,0002.63,0002.19
2022-11-01 11:57:00,,0824.2,4.99,0.00,26.1,24.4,00.0,35.1,27.9,10.3,0000.0,0004.14,0002.63,0002.18
2022-11-01 11:58:00,,0824.2,4.99,0.00,26.1,24.3,00.0,35.1,27.9,10.2,0000.0,0004.03,0002.59,0002.17
2022-11-01 11:59:00,,0824.2,5.00,0.00,26.1,24.3,00.0,35.0,27.9,10.2,0000.0,0004.01,0002.60,0002.16
